Location: Unspecified
(0.0000°N, 0.0000°E)
Time: 07:17:59
(UTC+02:00)

Iridium 75 - Visible Passes

Search period start: 02 July 2015 00:00
Search period end: 12 July 2015 00:00
Orbit: 776 x 779 km, 86.4° (Epoch: 01 July)

Date Brightness Start Highest point End Pass type
(mag) Time Alt. Az. Time Alt. Az. Time Alt. Az.
02 Jul 8.6 05:07:07 10° ENE 05:09:36 14° E 05:11:17 13° ESE visible
02 Jul 6.7 06:45:38 10° NNW 06:50:14 31° W 06:51:40 27° WSW visible
03 Jul 5.9 06:11:34 10° N 06:16:45 71° W 06:17:10 67° SW visible
04 Jul 6.8 05:38:15 10° NNE 05:42:46 49° ENE 05:42:46 49° ENE visible
05 Jul 8.3 05:05:48 10° NE 05:08:26 21° ENE 05:08:26 21° ENE visible
05 Jul 7.6 06:46:35 10° NW 06:48:50 18° WNW 06:48:50 18° WNW visible
06 Jul 7.2 06:11:54 10° NNW 06:14:35 28° NW 06:14:35 28° NW visible
07 Jul 7.7 05:38:09 10° N 05:40:23 26° N 05:40:23 26° N visible
08 Jul 8.5 05:05:09 10° NNE 05:06:14 16° NNE 05:06:14 16° NNE visible
10 Jul 8.6 05:38:18 10° N 05:38:30 11° N 05:38:30 11° N visible
